EW8032 Weather Reports


Display with metric or nautical units.
time (UTC)temp
F
wind
direction
speed
MPH
gust
MPH
rain 1hr
in
rain 24hr
in
rain mn
in
humidity
%
barometer
mb
20260901170824 81 319 3.0 9.0 0.00 0.00 0.00 57 1019.2
20260901170305 81 350 4.0 9.0 0.00 0.00 0.00 57 1019.3
20260901170110 81 315 2.0 9.0 0.00 0.00 0.00 57 1019.2
20260901170036 81 313 3.0 10.0 0.00 0.00 0.00 57 1019.3
20260901165928 81 322 5.0 10.0 0.00 0.00 0.00 57 1019.3
20260901165756 82 350 2.0 10.0 0.00 0.00 0.00 56 1019.3
20260901165627 82 340 4.0 10.0 0.00 0.00 0.00 57 1019.3
20260901165607 82 340 4.0 10.0 0.00 0.00 0.00 56 1019.3
20260901165424 82 303 6.0 10.0 0.00 0.00 0.00 56 1019.3
20260901165036 82 352 4.0 9.0 0.00 0.00 0.00 56 1019.2
20260901164923 82 303 4.0 9.0 0.00 0.00 0.00 56 1019.3
20260901164746 82 347 2.0 9.0 0.00 0.00 0.00 56 1019.3
20260901164618 82 321 4.0 9.0 0.00 0.00 0.00 56 1019.3
20260901164556 82 291 4.0 9.0 0.00 0.00 0.00 56 1019.3
20260901164140 83 348 3.0 7.0 0.00 0.00 0.00 55 1019.3
20260901163757 83 344 2.0 7.0 0.00 0.00 0.00 55 1019.2
20260901163621 83 327 3.0 7.0 0.00 0.00 0.00 55 1019.2
20260901163513 83 340 3.0 7.0 0.00 0.00 0.00 55 1019.2
20260901163439 83 338 3.0 7.0 0.00 0.00 0.00 55 1019.1
20260901163302 83 348 3.0 8.0 0.00 0.00 0.00 54 1019.1
20260901163119 83 0 3.0 8.0 0.00 0.00 0.00 53 1019.1
20260901163051 84 346 4.0 8.0 0.00 0.00 0.00 52 1019.1
20260901162548 84 331 3.0 9.0 0.00 0.00 0.00 53 1019.2
20260901162204 84 40 4.0 9.0 0.00 0.00 0.00 53 1019.1
20260901162027 84 336 3.0 9.0 0.00 0.00 0.00 53 1019.2
20260901161906 84 352 4.0 9.0 0.00 0.00 0.00 55 1019.2
20260901161831 84 9 5.0 9.0 0.00 0.00 0.00 55 1019.2
20260901161722 84 10 5.0 9.0 0.00 0.00 0.00 53 1019.3
20260901161536 84 333 4.0 9.0 0.00 0.00 0.00 53 1019.3
20260901161414 84 311 3.0 9.0 0.00 0.00 0.00 54 1019.2
20260901161348 84 350 3.0 9.0 0.00 0.00 0.00 53 1019.2
20260901161216 84 329 4.0 10.0 0.00 0.00 0.00 54 1019.3
20260901161038 84 339 2.0 10.0 0.00 0.00 0.00 53 1019.3
20260901161008 84 307 3.0 10.0 0.00 0.00 0.00 53 1019.4
20260901160900 84 309 3.0 10.0 0.00 0.00 0.00 52 1019.4
20260901160719 84 308 3.0 10.0 0.00 0.00 0.00 53 1019.3
20260901160600 84 306 4.0 10.0 0.00 0.00 0.00 54 1019.4
20260901160535 84 313 4.0 10.0 0.00 0.00 0.00 54 1019.4
20260901160009 83 288 3.0 10.0 0.00 0.00 0.00 55 1019.4
20260901155939 83 319 4.0 10.0 0.00 0.00 0.00 54 1019.4
20260901155820 83 306 3.0 10.0 0.00 0.00 0.00 54 1019.4
20260901155638 83 333 6.0 10.0 0.00 0.00 0.00 54 1019.4
20260901155525 83 338 4.0 9.0 0.00 0.00 0.00 54 1019.4
20260901155454 83 346 4.0 9.0 0.00 0.00 0.00 54 1019.4
20260901155314 83 309 3.0 9.0 0.00 0.00 0.00 54 1019.4
20260901154244 83 298 4.0 9.0 0.00 0.00 0.00 54 1019.5
20260901154103 84 317 5.0 9.0 0.00 0.00 0.00 53 1019.4
20260901154046 84 330 4.0 9.0 0.00 0.00 0.00 53 1019.4
20260901153614 84 335 4.0 8.0 0.00 0.00 0.00 54 1019.6
20260901153515 84 316 3.0 9.0 0.00 0.00 0.00 54 1019.5
20260901153432 84 345 3.0 9.0 0.00 0.00 0.00 54 1019.5
20260901153258 84 286 4.0 9.0 0.00 0.00 0.00 53 1019.4
20260901152746 84 335 3.0 11.0 0.00 0.00 0.00 54 1019.5
20260901152608 84 15 5.0 11.0 0.00 0.00 0.00 53 1019.4
20260901152508 84 264 4.0 11.0 0.00 0.00 0.00 55 1019.4
20260901152031 84 11 4.0 9.0 0.00 0.00 0.00 54 1019.5
20260901151845 84 334 4.0 9.0 0.00 0.00 0.00 53 1019.4
20260901151707 84 291 3.0 9.0 0.00 0.00 0.00 55 1019.5
20260901151532 84 336 4.0 9.0 0.00 0.00 0.00 54 1019.5
20260901151436 84 292 5.0 9.0 0.00 0.00 0.00 54 1019.4
20260901151346 84 5 3.0 9.0 0.00 0.00 0.00 54 1019.5
20260901151203 83 336 3.0 6.0 0.00 0.00 0.00 54 1019.4
20260901151022 83 315 4.0 6.0 0.00 0.00 0.00 54 1019.5
20260901151014 83 315 4.0 6.0 0.00 0.00 0.00 54 1019.5
20260901150845 84 327 3.0 6.0 0.00 0.00 0.00 53 1019.6
20260901150706 84 319 3.0 8.0 0.00 0.00 0.00 54 1019.5
20260901150605 84 5 2.0 8.0 0.00 0.00 0.00 53 1019.6
20260901150212 83 296 3.0 11.0 0.00 0.00 0.00 53 1019.5
20260901150046 84 15 4.0 11.0 0.00 0.00 0.00 53 1019.6
20260901150029 84 15 4.0 11.0 0.00 0.00 0.00 53 1019.6
20260901145859 84 31 5.0 11.0 0.00 0.00 0.00 53 1019.6
20260901145719 84 352 5.0 11.0 0.00 0.00 0.00 53 1019.5
20260901145413 84 90 4.0 9.0 0.00 0.00 0.00 54 1019.5
20260901145226 83 32 3.0 7.0 0.00 0.00 0.00 54 1019.5
20260901145047 83 70 2.0 7.0 0.00 0.00 0.00 55 1019.6
20260901145030 83 83 2.0 7.0 0.00 0.00 0.00 55 1019.6
20260901144905 83 286 3.0 8.0 0.00 0.00 0.00 53 1019.6
20260901144132 84 352 2.0 8.0 0.00 0.00 0.00 53 1019.6
20260901143520 84 318 3.0 10.0 0.00 0.00 0.00 53 1019.6
20260901141641 82 40 1.0 6.0 0.00 0.00 0.00 57 1019.7
20260901141539 82 43 0.0 6.0 0.00 0.00 0.00 55 1019.8
20260901141517 82 43 0.0 7.0 0.00 0.00 0.00 56 1019.8
20260901141352 82 81 2.0 8.0 0.00 0.00 0.00 55 1019.7
20260901141046 82 78 4.0 8.0 0.00 0.00 0.00 55 1019.9
20260901140938 82 40 3.0 8.0 0.00 0.00 0.00 56 1019.9
20260901140756 82 62 5.0 8.0 0.00 0.00 0.00 56 1019.8
20260901140518 82 80 4.0 8.0 0.00 0.00 0.00 55 1019.9
20260901140328 82 101 2.0 7.0 0.00 0.00 0.00 55 1019.9
20260901140147 82 0 1.0 10.0 0.00 0.00 0.00 56 1019.9
20260901135828 82 40 2.0 10.0 0.00 0.00 0.00 55 1019.9
20260901135635 82 83 2.0 10.0 0.00 0.00 0.00 56 1020.0
20260901135525 82 346 2.0 10.0 0.00 0.00 0.00 56 1019.9
20260901135503 82 346 1.0 10.0 0.00 0.00 0.00 56 1019.9
20260901135311 82 70 5.0 10.0 0.00 0.00 0.00 55 1020.0
20260901135136 81 105 3.0 8.0 0.00 0.00 0.00 56 1019.9
20260901135057 81 60 3.0 8.0 0.00 0.00 0.00 56 1019.9
20260901134945 81 76 1.0 8.0 0.00 0.00 0.00 56 1020.0
20260901134500 81 74 4.0 8.0 0.00 0.00 0.00 55 1020.0
20260901134435 81 83 5.0 8.0 0.00 0.00 0.00 55 1020.0
20260901134255 81 63 2.0 9.0 0.00 0.00 0.00 56 1020.0
20260901134116 81 131 3.0 9.0 0.00 0.00 0.00 56 1019.9
20260901134046 81 119 3.0 9.0 0.00 0.00 0.00 56 1020.0
20260901133929 81 151 3.0 9.0 0.00 0.00 0.00 56 1020.0
20260901133746 81 96 6.0 9.0 0.00 0.00 0.00 55 1020.0
20260901133431 82 47 7.0 9.0 0.00 0.00 0.00 55 1019.9
20260901133246 82 76 3.0 9.0 0.00 0.00 0.00 55 1020.0
20260901133107 82 19 2.0 7.0 0.00 0.00 0.00 55 1020.0
20260901133037 82 44 2.0 7.0 0.00 0.00 0.00 56 1020.1
20260901132929 82 57 2.0 5.0 0.00 0.00 0.00 56 1020.0
20260901132741 81 123 0.0 5.0 0.00 0.00 0.00 56 1020.1
20260901132629 81 0 0.0 8.0 0.00 0.00 0.00 57 1020.1
20260901132609 81 0 1.0 8.0 0.00 0.00 0.00 57 1020.1
20260901131913 81 44 4.0 9.0 0.00 0.00 0.00 56 1020.1
20260901131729 81 54 3.0 9.0 0.00 0.00 0.00 56 1020.2
20260901131616 81 351 3.0 9.0 0.00 0.00 0.00 56 1020.1
20260901131223 81 100 1.0 7.0 0.00 0.00 0.00 56 1020.2
20260901131043 81 28 2.0 9.0 0.00 0.00 0.00 56 1020.2
20260901131012 81 123 2.0 9.0 0.00 0.00 0.00 56 1020.2
20260901130917 81 123 2.0 9.0 0.00 0.00 0.00 55 1020.2
20260901130740 81 164 3.0 9.0 0.00 0.00 0.00 56 1020.3
20260901130410 81 21 4.0 11.0 0.00 0.00 0.00 57 1020.3
20260901130219 81 30 6.0 11.0 0.00 0.00 0.00 56 1020.3
20260901130038 81 119 5.0 11.0 0.00 0.00 0.00 57 1020.3
20260901130004 81 94 5.0 11.0 0.00 0.00 0.00 56 1020.2
20260901125851 81 67 6.0 11.0 0.00 0.00 0.00 57 1020.3
20260901125711 81 51 5.0 11.0 0.00 0.00 0.00 56 1020.2
20260901125550 81 51 4.0 8.0 0.00 0.00 0.00 57 1020.3
20260901125524 81 74 3.0 8.0 0.00 0.00 0.00 57 1020.3
20260901124954 81 128 3.0 8.0 0.00 0.00 0.00 56 1020.3
20260901124919 81 114 3.0 8.0 0.00 0.00 0.00 56 1020.3
20260901124813 81 83 3.0 8.0 0.00 0.00 0.00 58 1020.3
20260901124623 81 68 5.0 8.0 0.00 0.00 0.00 58 1020.3
20260901124458 80 9 3.0 8.0 0.00 0.00 0.00 58 1020.3
20260901124441 80 36 1.0 8.0 0.00 0.00 0.00 58 1020.3
20260901124250 80 196 2.0 10.0 0.00 0.00 0.00 57 1020.4
20260901123805 80 19 3.0 14.0 0.00 0.00 0.00 59 1020.5
20260901123625 80 98 3.0 14.0 0.00 0.00 0.00 59 1020.3
20260901123449 80 51 4.0 14.0 0.00 0.00 0.00 57 1020.4
20260901123440 80 51 8.0 14.0 0.00 0.00 0.00 57 1020.4
20260901122951 80 59 4.0 11.0 0.00 0.00 0.00 58 1020.4
20260901122859 80 352 4.0 11.0 0.00 0.00 0.00 59 1020.4
20260901122759 80 57 2.0 11.0 0.00 0.00 0.00 58 1020.5
20260901122624 80 28 3.0 11.0 0.00 0.00 0.00 59 1020.5
20260901122435 79 46 4.0 11.0 0.00 0.00 0.00 58 1020.5
20260901122252 79 78 6.0 11.0 0.00 0.00 0.00 59 1020.5
20260901121849 79 113 6.0 11.0 0.00 0.00 0.00 58 1020.5
20260901121655 79 77 7.0 11.0 0.00 0.00 0.00 58 1020.5
20260901121323 79 41 4.0 10.0 0.00 0.00 0.00 59 1020.6
20260901121147 79 55 5.0 11.0 0.00 0.00 0.00 58 1020.6
20260901121007 79 67 2.0 11.0 0.00 0.00 0.00 60 1020.6
20260901120904 79 78 2.0 11.0 0.00 0.00 0.00 60 1020.5
20260901120809 78 77 2.0 11.0 0.00 0.00 0.00 60 1020.6
20260901120631 78 102 5.0 11.0 0.00 0.00 0.00 59 1020.5
20260901120447 78 85 7.0 11.0 0.00 0.00 0.00 59 1020.7
20260901120443 78 90 7.0 11.0 0.00 0.00 0.00 59 1020.7
20260901120020 78 65 4.0 11.0 0.00 0.00 0.00 60 1020.7
20260901115559 78 159 5.0 11.0 0.00 0.00 0.00 59 1020.7
20260901115416 78 39 8.0 11.0 0.00 0.00 0.00 59 1020.7
20260901115412 78 38 8.0 11.0 0.00 0.00 0.00 59 1020.7
20260901115214 78 81 3.0 12.0 0.00 0.00 0.00 59 1020.8
20260901114825 78 55 3.0 12.0 0.00 0.00 0.00 61 1020.7
20260901114721 78 52 5.0 12.0 0.00 0.00 0.00 60 1020.7
20260901114548 78 49 5.0 12.0 0.00 0.00 0.00 61 1020.8
20260901114412 78 49 6.0 12.0 0.00 0.00 0.00 61 1020.7
20260901114355 78 38 6.0 12.0 0.00 0.00 0.00 61 1020.7
20260901114201 78 84 6.0 12.0 0.00 0.00 0.00 61 1020.8
20260901114017 77 48 4.0 12.0 0.00 0.00 0.00 62 1020.8
20260901113939 77 57 4.0 12.0 0.00 0.00 0.00 62 1020.8
20260901113451 77 80 4.0 12.0 0.00 0.00 0.00 62 1020.8
20260901113324 77 108 7.0 12.0 0.00 0.00 0.00 61 1020.8
20260901113259 77 71 7.0 12.0 0.00 0.00 0.00 62 1020.9
20260901113118 77 39 4.0 11.0 0.00 0.00 0.00 63 1020.8
20260901112657 76 122 7.0 12.0 0.00 0.00 0.00 62 1020.9
20260901112545 76 102 8.0 12.0 0.00 0.00 0.00 63 1020.8
20260901112402 76 69 4.0 12.0 0.00 0.00 0.00 63 1020.9
20260901112242 76 136 7.0 12.0 0.00 0.00 0.00 63 1020.9
20260901112211 76 92 7.0 12.0 0.00 0.00 0.00 63 1020.8
20260901112031 76 55 6.0 12.0 0.00 0.00 0.00 64 1021.0
20260901111851 76 46 7.0 11.0 0.00 0.00 0.00 64 1020.9
20260901111822 76 65 7.0 11.0 0.00 0.00 0.00 64 1020.9
20260901111704 76 76 7.0 11.0 0.00 0.00 0.00 64 1021.0
20260901111526 76 83 4.0 8.0 0.00 0.00 0.00 65 1020.9
20260901111405 76 155 5.0 8.0 0.00 0.00 0.00 64 1021.0
20260901111339 76 65 5.0 8.0 0.00 0.00 0.00 64 1021.0
20260901111156 76 69 3.0 9.0 0.00 0.00 0.00 64 1021.1
20260901110857 76 53 4.0 9.0 0.00 0.00 0.00 64 1021.1
20260901110729 76 48 4.0 9.0 0.00 0.00 0.00 65 1021.2
20260901110550 76 47 6.0 9.0 0.00 0.00 0.00 64 1021.3
20260901105848 75 68 4.0 10.0 0.00 0.00 0.00 66 1021.3
20260901105150 75 115 4.0 8.0 0.00 0.00 0.00 66 1021.3
20260901105005 75 81 4.0 7.0 0.00 0.00 0.00 67 1021.3
20260901104921 75 52 4.0 7.0 0.00 0.00 0.00 67 1021.3
20260901104813 74 46 4.0 7.0 0.00 0.00 0.00 68 1021.3
20260901104636 74 50 3.0 9.0 0.00 0.00 0.00 67 1021.4
20260901104354 74 45 4.0 9.0 0.00 0.00 0.00 67 1021.5
20260901104214 74 50 3.0 9.0 0.00 0.00 0.00 67 1021.5
20260901104033 74 54 5.0 9.0 0.00 0.00 0.00 67 1021.5
20260901103955 75 71 6.0 9.0 0.00 0.00 0.00 67 1021.5
20260901103509 75 90 2.0 8.0 0.00 0.00 0.00 68 1021.5
20260901103456 75 44 2.0 8.0 0.00 0.00 0.00 68 1021.5
20260901102817 74 48 2.0 7.0 0.00 0.00 0.00 70 1021.5
20260901102645 74 55 5.0 9.0 0.00 0.00 0.00 69 1021.5
20260901102231 74 78 3.0 9.0 0.00 0.00 0.00 70 1021.5
20260901101837 74 82 4.0 9.0 0.00 0.00 0.00 71 1021.5
20260901101741 73 78 5.0 9.0 0.00 0.00 0.00 70 1021.4
20260901101558 73 59 5.0 10.0 0.00 0.00 0.00 71 1021.5
20260901101408 73 48 4.0 10.0 0.00 0.00 0.00 71 1021.5
20260901101210 73 68 4.0 10.0 0.00 0.00 0.00 71 1021.5
20260901100744 73 117 4.0 10.0 0.00 0.00 0.00 72 1021.4
20260901100641 73 90 7.0 10.0 0.00 0.00 0.00 72 1021.5
20260901100506 73 55 4.0 8.0 0.00 0.00 0.00 73 1021.6
20260901100314 73 47 1.0 8.0 0.00 0.00 0.00 73 1021.6
20260901100114 72 81 4.0 8.0 0.00 0.00 0.00 73 1021.6
20260901095640 72 49 5.0 8.0 0.00 0.00 0.00 73 1021.6
20260901095150 72 55 3.0 8.0 0.00 0.00 0.00 75 1021.7
20260901095012 72 78 5.0 8.0 0.00 0.00 0.00 74 1021.7
20260901094958 72 82 5.0 8.0 0.00 0.00 0.00 74 1021.7
20260901094407 71 44 4.0 8.0 0.00 0.00 0.00 75 1021.6
20260901093956 71 63 5.0 8.0 0.00 0.00 0.00 75 1021.7
20260901093813 71 51 5.0 9.0 0.00 0.00 0.00 75 1021.6
20260901093642 71 67 4.0 9.0 0.00 0.00 0.00 75 1021.7
20260901092833 71 94 6.0 9.0 0.00 0.00 0.00 75 1021.6
20260901092758 71 56 6.0 9.0 0.00 0.00 0.00 75 1021.7
20260901092635 71 90 5.0 9.0 0.00 0.00 0.00 75 1021.6
20260901092450 71 121 3.0 9.0 0.00 0.00 0.00 76 1021.5
20260901092325 71 73 4.0 9.0 0.00 0.00 0.00 77 1021.7
20260901092247 71 78 4.0 9.0 0.00 0.00 0.00 78 1021.7
20260901091714 70 67 5.0 9.0 0.00 0.00 0.00 77 1021.6
20260901091644 70 107 5.0 9.0 0.00 0.00 0.00 77 1021.7
20260901091517 70 72 4.0 8.0 0.00 0.00 0.00 76 1021.8
20260901091336 71 67 5.0 8.0 0.00 0.00 0.00 76 1021.5
20260901091218 71 79 5.0 8.0 0.00 0.00 0.00 76 1021.7
20260901090752 71 63 4.0 8.0 0.00 0.00 0.00 76 1021.7
20260901090611 70 115 2.0 8.0 0.00 0.00 0.00 78 1021.8
20260901090542 70 117 2.0 8.0 0.00 0.00 0.00 78 1021.6
20260901090019 70 49 4.0 8.0 0.00 0.00 0.00 77 1021.7
20260901085904 70 85 5.0 8.0 0.00 0.00 0.00 77 1021.6
20260901085827 70 83 4.0 8.0 0.00 0.00 0.00 77 1021.7
20260901085259 70 81 4.0 7.0 0.00 0.00 0.00 79 1021.7
20260901085220 70 72 4.0 5.0 0.00 0.00 0.00 78 1021.7
20260901084330 69 51 2.0 5.0 0.00 0.00 0.00 80 1021.5
20260901083903 69 121 1.0 5.0 0.00 0.00 0.00 81 1021.6
20260901083731 69 63 2.0 5.0 0.00 0.00 0.00 81 1021.7
20260901083707 69 34 2.0 5.0 0.00 0.00 0.00 81 1021.6
20260901083553 69 34 2.0 5.0 0.00 0.00 0.00 81 1021.6
20260901083418 69 351 2.0 6.0 0.00 0.00 0.00 81 1021.6
20260901083015 68 67 2.0 6.0 0.00 0.00 0.00 81 1021.7
20260901082445 68 74 4.0 7.0 0.00 0.00 0.00 81 1021.7
20260901082412 68 46 4.0 9.0 0.00 0.00 0.00 81 1021.6
20260901081852 68 50 4.0 9.0 0.00 0.00 0.00 81 1021.7
20260901081739 68 78 4.0 9.0 0.00 0.00 0.00 80 1021.8
20260901081717 68 51 4.0 9.0 0.00 0.00 0.00 80 1021.8
20260901081134 68 53 3.0 9.0 0.00 0.00 0.00 81 1021.8
20260901081103 68 40 3.0 5.0 0.00 0.00 0.00 82 1021.8
20260901080840 68 62 2.0 4.0 0.00 0.00 0.00 82 1021.8
20260901080655 68 55 1.0 4.0 0.00 0.00 0.00 82 1021.8
20260901080535 68 340 0.0 4.0 0.00 0.00 0.00 83 1021.8
20260901080501 68 57 1.0 4.0 0.00 0.00 0.00 83 1021.8
20260901080317 67 57 2.0 4.0 0.00 0.00 0.00 83 1021.8
20260901080154 67 55 2.0 4.0 0.00 0.00 0.00 82 1021.8
20260901080115 67 61 2.0 4.0 0.00 0.00 0.00 82 1021.8
20260901075958 67 352 2.0 4.0 0.00 0.00 0.00 83 1021.9
20260901075829 67 352 2.0 6.0 0.00 0.00 0.00 82 1021.9
20260901075723 67 45 1.0 6.0 0.00 0.00 0.00 83 1021.9
20260901075649 67 45 1.0 6.0 0.00 0.00 0.00 84 1021.9
20260901075146 67 61 3.0 6.0 0.00 0.00 0.00 84 1021.8
20260901075106 67 68 3.0 6.0 0.00 0.00 0.00 84 1022.0
20260901074952 67 53 2.0 6.0 0.00 0.00 0.00 84 1021.8
20260901074811 67 20 1.0 5.0 0.00 0.00 0.00 85 1021.9
20260901074633 67 55 1.0 5.0 0.00 0.00 0.00 86 1021.8
20260901074507 67 352 2.0 5.0 0.00 0.00 0.00 86 1021.9
20260901074334 66 69 2.0 5.0 0.00 0.00 0.00 87 1021.9
20260901073854 66 349 1.0 5.0 0.00 0.00 0.00 86 1022.0
20260901073406 66 16 0.0 1.0 0.00 0.00 0.00 87 1021.9
20260901073339 66 350 0.0 1.0 0.00 0.00 0.00 87 1021.9
20260901073150 65 349 0.0 1.0 0.00 0.00 0.00 88 1022.0
20260901073050 65 349 0.0 1.0 0.00 0.00 0.00 88 1022.0
20260901072950 65 349 0.0 1.0 0.00 0.00 0.00 88 1021.9
20260901072749 65 0 0.0 1.0 0.00 0.00 0.00 89 1022.0
20260901072638 65 0 0.0 1.0 0.00 0.00 0.00 89 1021.9
20260901072520 65 0 0.0 1.0 0.00 0.00 0.00 90 1021.9
20260901072512 65 0 0.0 1.0 0.00 0.00 0.00 90 1021.9
20260901072045 65 0 0.0 0.0 0.00 0.00 0.00 91 1022.0
20260901071951 64 0 0.0 0.0 0.00 0.00 0.00 91 1021.9
20260901071752 64 0 0.0 0.0 0.00 0.00 0.00 91 1021.9
20260901071642 64 0 0.0 1.0 0.00 0.00 0.00 92 1022.0
20260901071550 64 0 0.0 1.0 0.00 0.00 0.00 92 1022.0
20260901071512 64 0 0.0 1.0 0.00 0.00 0.00 92 1021.9
20260901071408 64 0 0.0 1.0 0.00 0.00 0.00 92 1022.0
20260901071254 63 0 0.0 1.0 0.00 0.00 0.00 92 1021.9
20260901071209 63 0 0.0 1.0 0.00 0.00 0.00 92 1021.9
20260901071115 63 0 0.0 1.0 0.00 0.00 0.00 92 1021.9
20260901071002 63 0 0.0 1.0 0.00 0.00 0.00 92 1021.9
20260901070910 63 0 0.0 2.0 0.00 0.00 0.00 92 1021.9
20260901070534 63 0 0.0 2.0 0.00 0.00 0.00 92 1022.0
20260901070431 63 0 0.0 4.0 0.00 0.00 0.00 92 1021.9
20260901065735 63 0 0.0 4.0 0.00 0.00 0.00 93 1022.0
20260901065639 62 0 0.0 4.0 0.00 0.00 0.00 93 1022.0
20260901065138 62 351 1.0 4.0 0.00 0.00 0.00 93 1022.0
20260901065002 62 352 0.0 1.0 0.00 0.00 0.00 93 1022.0
20260901064929 62 352 0.0 1.0 0.00 0.00 0.00 93 1021.9
20260901064906 62 352 0.0 1.0 0.00 0.00 0.00 93 1022.0
20260901064808 62 352 0.0 1.0 0.00 0.00 0.00 93 1021.9
20260901064742 62 352 0.0 1.0 0.00 0.00 0.00 93 1022.0
20260901064111 62 352 0.0 4.0 0.00 0.00 0.00 93 1021.9
20260901063651 62 352 0.0 4.0 0.00 0.00 0.00 93 1021.8
20260901063544 62 352 0.0 4.0 0.00 0.00 0.00 93 1021.8
20260901063505 62 352 0.0 4.0 0.00 0.00 0.00 93 1021.8
20260901063103 62 0 1.0 4.0 0.00 0.00 0.00 93 1021.8
20260901062909 62 340 1.0 2.0 0.00 0.00 0.00 94 1021.7
20260901062430 62 340 0.0 2.0 0.00 0.00 0.00 94 1021.7
20260901062310 61 340 0.0 0.0 0.00 0.00 0.00 94 1021.8
20260901062246 61 340 0.0 0.0 0.00 0.00 0.00 94 1021.7
20260901062126 61 340 0.0 0.0 0.00 0.00 0.00 94 1021.7
20260901062041 61 340 0.0 0.0 0.00 0.00 0.00 94 1021.7
20260901061733 61 340 0.0 0.0 0.00 0.00 0.00 94 1021.7
20260901061609 61 340 0.0 0.0 0.00 0.00 0.00 94 1021.8
20260901061516 61 340 0.0 0.0 0.00 0.00 0.00 94 1021.7
20260901061158 61 340 0.0 0.0 0.00 0.00 0.00 93 1021.8
20260901061006 61 340 0.0 0.0 0.00 0.00 0.00 93 1021.6
20260901060854 61 340 0.0 0.0 0.00 0.00 0.00 94 1021.5
20260901060741 61 340 0.0 0.0 0.00 0.00 0.00 94 1021.6
20260901060121 61 340 0.0 0.0 0.00 0.00 0.00 93 1021.5
20260901055918 61 340 0.0 0.0 0.00 0.00 0.00 93 1021.5
20260901055823 61 340 0.0 0.0 0.00 0.00 0.00 93 1021.4
20260901055443 61 340 0.0 0.0 0.00 0.00 0.00 93 1021.5
20260901055106 61 340 0.0 0.0 0.00 0.00 0.00 93 1021.5
20260901055033 61 340 0.0 0.0 0.00 0.00 0.00 93 1021.5
20260901054943 61 340 0.0 0.0 0.00 0.00 0.00 93 1021.5
20260901054821 62 314 0.0 0.0 0.00 0.00 0.00 89 1023.0
20260901054731 61 340 0.0 0.0 0.00 0.00 0.00 93 1021.5
20260901054630 61 340 0.0 0.0 0.00 0.00 0.00 93 1021.4
20260901054501 61 340 0.0 0.0 0.00 0.00 0.00 93 1021.4
20260901054424 61 340 0.0 0.0 0.00 0.00 0.00 93 1021.4
20260901054321 61 340 0.0 0.0 0.00 0.00 0.00 93 1021.4
20260901054150 62 340 0.0 0.0 0.00 0.00 0.00 93 1021.4
20260901054055 62 340 0.0 0.0 0.00 0.00 0.00 93 1021.4
20260901054047 62 340 0.0 0.0 0.00 0.00 0.00 93 1021.4
20260901053707 62 340 0.0 0.0 0.00 0.00 0.00 93 1021.4
20260901053622 62 340 0.0 0.0 0.00 0.00 0.00 93 1021.4
20260901052845 62 340 0.0 0.0 0.00 0.00 0.00 93 1021.4
20260901052829 62 340 0.0 0.0 0.00 0.00 0.00 93 1021.4
20260901052312 62 340 0.0 0.0 0.00 0.00 0.00 93 1021.5
20260901051842 62 340 0.0 0.0 0.00 0.00 0.00 93 1021.6
20260901051500 62 340 0.0 0.0 0.00 0.00 0.00 93 1021.5
20260901051407 62 340 0.0 0.0 0.00 0.00 0.00 93 1021.7
20260901051305 62 340 0.0 0.0 0.00 0.00 0.00 93 1021.6
20260901051142 62 340 0.0 0.0 0.00 0.00 0.00 93 1021.6
20260901050814 62 340 0.0 0.0 0.00 0.00 0.00 93 1021.7
20260901050115 62 340 0.0 0.0 0.00 0.00 0.00 93 1021.7
20260901050013 62 340 0.0 0.0 0.00 0.00 0.00 93 1021.7
20260901045947 62 340 0.0 0.0 0.00 0.00 0.00 93 1021.8
20260901045731 63 314 0.0 0.0 0.00 0.00 0.00 88 1022.9
20260901045706 62 340 0.0 0.0 0.00 0.00 0.00 93 1021.7
20260901045525 62 340 0.0 0.0 0.00 0.00 0.00 93 1021.6
20260901045500 62 340 0.0 0.0 0.00 0.00 0.00 93 1021.7
20260901045307 62 340 0.0 0.0 0.00 0.00 0.00 93 1021.7
20260901045236 63 314 0.0 0.0 0.00 0.00 0.00 88 1022.9
20260901045222 63 314 0.0 0.0 0.00 0.00 0.00 88 1022.9
20260901045126 63 314 0.0 0.0 0.00 0.00 0.00 87 1022.9
20260901045104 62 340 0.0 0.0 0.00 0.00 0.00 93 1021.7
20260901044956 62 340 0.0 0.0 0.00 0.00 0.00 93 1021.8
20260901044932 62 340 0.0 0.0 0.00 0.00 0.00 93 1021.7
20260901044739 62 340 0.0 0.0 0.00 0.00 0.00 93 1021.8
20260901044644 62 340 0.0 0.0 0.00 0.00 0.00 93 1021.8
20260901044613 62 340 0.0 0.0 0.00 0.00 0.00 93 1021.7
20260901044436 62 340 0.0 0.0 0.00 0.00 0.00 93 1021.7
20260901044343 62 340 0.0 0.0 0.00 0.00 0.00 93 1021.8
20260901044252 62 340 0.0 0.0 0.00 0.00 0.00 93 1021.8
20260901044240 62 340 0.0 0.0 0.00 0.00 0.00 93 1021.7
20260901043520 62 340 0.0 0.0 0.00 0.00 0.00 93 1021.8
20260901043316 62 340 0.0 0.0 0.00 0.00 0.00 93 1021.8
20260901043258 64 314 0.0 0.0 0.00 0.00 0.00 87 1022.9
20260901043219 64 314 0.0 0.0 0.00 0.00 0.00 85 1022.9
20260901043154 65 314 0.0 0.0 0.00 0.00 0.00 84 1022.9
20260901043130 62 340 0.0 0.0 0.00 0.00 0.00 93 1021.8
20260901043028 62 340 0.0 0.0 0.00 0.00 0.00 93 1021.8
20260901042859 62 340 0.0 0.0 0.00 0.00 0.00 93 1021.8
20260901042510 62 340 0.0 0.0 0.00 0.00 0.00 93 1021.7
20260901042438 62 340 0.0 0.0 0.00 0.00 0.00 93 1021.8
20260901042311 62 340 0.0 0.0 0.00 0.00 0.00 93 1021.8
20260901042244 65 314 0.0 2.0 0.00 0.00 0.00 84 1023.0
20260901042156 65 314 1.0 2.0 0.00 0.00 0.00 83 1022.9
20260901042136 65 314 0.0 0.0 0.00 0.00 0.00 83 1023.0
20260901042114 62 340 0.0 0.0 0.00 0.00 0.00 93 1021.8
20260901041955 62 340 0.0 0.0 0.00 0.00 0.00 93 1021.8
20260901041805 62 340 0.0 0.0 0.00 0.00 0.00 93 1021.7
20260901041710 62 340 0.0 4.0 0.00 0.00 0.00 93 1021.7
20260901041655 62 340 0.0 4.0 0.00 0.00 0.00 93 1021.7
20260901041536 62 340 0.0 4.0 0.00 0.00 0.00 93 1021.7
20260901041446 62 340 0.0 4.0 0.00 0.00 0.00 93 1021.6
20260901041333 62 340 0.0 4.0 0.00 0.00 0.00 93 1021.7
20260901040521 62 314 2.0 3.0 0.00 0.00 0.00 93 1021.7
20260901040320 62 314 1.0 3.0 0.00 0.00 0.00 93 1021.7
20260901040143 62 314 0.0 0.0 0.00 0.00 0.00 93 1021.7
20260901040030 62 314 0.0 0.0 0.00 0.00 0.00 93 1021.7
20260901035853 62 314 0.0 0.0 0.00 0.00 0.00 93 1021.7
20260901035758 62 314 0.0 0.0 0.00 0.00 0.00 93 1021.7
20260901035415 62 314 0.0 0.0 0.00 0.00 0.00 93 1021.7
20260901035107 62 314 0.0 0.0 0.00 0.00 0.00 93 1021.7
20260901035014 65 314 0.0 0.0 0.00 0.00 0.00 82 1023.0
20260901034939 62 314 0.0 0.0 0.00 0.00 0.00 93 1021.7
20260901034800 62 314 0.0 0.0 0.00 0.00 0.00 93 1021.7
20260901034641 62 314 0.0 0.0 0.00 0.00 0.00 92 1021.7
20260901034117 62 314 0.0 0.0 0.00 0.00 0.00 93 1021.7
20260901034003 62 314 0.0 0.0 0.00 0.00 0.00 92 1021.6
20260901033931 62 314 0.0 0.0 0.00 0.00 0.00 92 1021.7
20260901033736 62 314 0.0 0.0 0.00 0.00 0.00 92 1021.8
20260901033617 62 314 0.0 0.0 0.00 0.00 0.00 92 1021.8
20260901033058 63 314 0.0 0.0 0.00 0.00 0.00 93 1021.9
20260901033001 63 314 0.0 0.0 0.00 0.00 0.00 93 1021.8
20260901032927 63 314 0.0 0.0 0.00 0.00 0.00 93 1021.9
20260901032749 63 314 0.0 0.0 0.00 0.00 0.00 93 1021.8
20260901032634 63 314 0.0 0.0 0.00 0.00 0.00 92 1021.9
20260901032228 63 314 0.0 0.0 0.00 0.00 0.00 92 1021.8
20260901032159 66 314 0.0 1.0 0.00 0.00 0.00 81 1023.0
20260901032044 63 314 0.0 0.0 0.00 0.00 0.00 92 1021.9
20260901031944 63 314 0.0 0.0 0.00 0.00 0.00 92 1021.9
20260901031907 63 314 0.0 0.0 0.00 0.00 0.00 92 1021.9
20260901031633 62 314 0.0 0.0 0.00 0.00 0.00 92 1021.9
20260901031457 62 314 0.0 0.0 0.00 0.00 0.00 92 1021.9
20260901031318 62 314 0.0 0.0 0.00 0.00 0.00 92 1021.9
20260901030934 62 314 0.0 0.0 0.00 0.00 0.00 92 1021.9
20260901030902 62 314 0.0 0.0 0.00 0.00 0.00 92 1022.0
20260901030725 67 314 0.0 2.0 0.00 0.00 0.00 81 1023.0
20260901030631 62 314 0.0 0.0 0.00 0.00 0.00 92 1021.9
20260901030515 62 314 0.0 0.0 0.00 0.00 0.00 92 1022.0
20260901030334 62 314 0.0 0.0 0.00 0.00 0.00 92 1022.0
20260901030005 63 314 0.0 0.0 0.00 0.00 0.00 92 1022.0
20260901025935 63 314 0.0 0.0 0.00 0.00 0.00 92 1021.9
20260901025819 63 314 0.0 0.0 0.00 0.00 0.00 92 1021.9
20260901025506 63 314 0.0 0.0 0.00 0.00 0.00 92 1021.9
20260901025332 63 314 0.0 0.0 0.00 0.00 0.00 92 1021.8
20260901025253 63 314 0.0 0.0 0.00 0.00 0.00 92 1021.8
20260901025206 63 314 0.0 0.0 0.00 0.00 0.00 92 1021.8
20260901025133 63 314 0.0 0.0 0.00 0.00 0.00 92 1021.8
20260901024950 63 314 0.0 0.0 0.00 0.00 0.00 92 1021.9
20260901024849 63 314 0.0 0.0 0.00 0.00 0.00 92 1021.9
20260901024818 63 314 0.0 0.0 0.00 0.00 0.00 92 1021.9
20260901023609 63 314 0.0 0.0 0.00 0.00 0.00 92 1022.0
20260901023449 62 314 0.0 0.0 0.00 0.00 0.00 92 1022.0
20260901023320 62 314 0.0 0.0 0.00 0.00 0.00 92 1022.0
20260901022936 62 314 0.0 0.0 0.00 0.00 0.00 92 1022.0
20260901022911 62 314 0.0 0.0 0.00 0.00 0.00 92 1022.0
20260901022721 62 314 0.0 0.0 0.00 0.00 0.00 92 1022.1
20260901022417 62 314 0.0 0.0 0.00 0.00 0.00 92 1022.1
20260901022217 62 314 0.0 0.0 0.00 0.00 0.00 92 1022.1
20260901022107 62 314 0.0 0.0 0.00 0.00 0.00 92 1022.2
20260901022043 62 314 0.0 0.0 0.00 0.00 0.00 92 1022.1
20260901022021 62 314 0.0 0.0 0.00 0.00 0.00 92 1022.2
20260901021611 62 314 0.0 0.0 0.00 0.00 0.00 93 1022.2
20260901021518 67 313 0.0 2.0 0.00 0.00 0.00 79 1022.8
20260901021427 62 314 0.0 0.0 0.00 0.00 0.00 93 1022.2
20260901021207 62 314 0.0 0.0 0.00 0.00 0.00 93 1022.1
20260901021124 68 313 0.0 1.0 0.00 0.00 0.00 78 1022.7
20260901021008 62 314 0.0 0.0 0.00 0.00 0.00 92 1022.2
20260901020913 62 314 0.0 0.0 0.00 0.00 0.00 93 1022.2
20260901020832 62 314 0.0 0.0 0.00 0.00 0.00 92 1022.1
20260901020636 68 331 0.0 2.0 0.00 0.00 0.00 77 1022.5
20260901020607 62 314 0.0 0.0 0.00 0.00 0.00 92 1022.2
20260901020410 62 314 0.0 0.0 0.00 0.00 0.00 93 1022.2
20260901020207 62 314 0.0 0.0 0.00 0.00 0.00 92 1022.3
20260901020022 62 314 0.0 0.0 0.00 0.00 0.00 93 1022.3
20260901015919 62 314 0.0 0.0 0.00 0.00 0.00 92 1022.3
20260901015840 62 314 0.0 0.0 0.00 0.00 0.00 92 1022.3
20260901015703 68 331 0.0 4.0 0.00 0.00 0.00 76 1022.6
20260901015615 62 314 0.0 0.0 0.00 0.00 0.00 93 1022.2
20260901015410 62 314 0.0 0.0 0.00 0.00 0.00 93 1022.3
20260901015208 62 314 0.0 0.0 0.00 0.00 0.00 93 1022.3
20260901015047 62 314 0.0 0.0 0.00 0.00 0.00 93 1022.4
20260901014958 62 314 0.0 0.0 0.00 0.00 0.00 93 1022.3
20260901014923 62 314 0.0 0.0 0.00 0.00 0.00 93 1022.4
20260901014743 62 314 0.0 0.0 0.00 0.00 0.00 93 1022.3
20260901014426 62 314 0.0 0.0 0.00 0.00 0.00 93 1022.4
20260901014255 62 314 0.0 0.0 0.00 0.00 0.00 93 1022.4
20260901014147 62 314 0.0 0.0 0.00 0.00 0.00 93 1022.4
20260901014114 62 314 0.0 0.0 0.00 0.00 0.00 93 1022.4
20260901014059 62 314 0.0 0.0 0.00 0.00 0.00 93 1022.3
20260901013611 62 314 0.0 0.0 0.00 0.00 0.00 93 1022.5
20260901013554 62 314 0.0 0.0 0.00 0.00 0.00 93 1022.5
20260901013122 62 314 0.0 0.0 0.00 0.00 0.00 93 1022.4
20260901013046 62 314 0.0 0.0 0.00 0.00 0.00 93 1022.4
20260901012612 62 314 0.0 0.0 0.00 0.00 0.00 93 1022.5
20260901012553 69 331 1.0 6.0 0.00 0.00 0.00 76 1022.4
20260901012416 62 314 0.0 0.0 0.00 0.00 0.00 93 1022.6
20260901012353 62 314 0.0 0.0 0.00 0.00 0.00 93 1022.6
20260901012306 62 314 0.0 0.0 0.00 0.00 0.00 93 1022.6
20260901012004 62 314 0.0 0.0 0.00 0.00 0.00 93 1022.6
20260901011958 69 310 1.0 6.0 0.00 0.00 0.00 75 1022.3
20260901011850 62 314 0.0 0.0 0.00 0.00 0.00 93 1022.6
20260901011828 62 314 0.0 0.0 0.00 0.00 0.00 93 1022.7
20260901011649 69 315 2.0 4.0 0.00 0.00 0.00 74 1022.3
20260901011610 62 314 0.0 0.0 0.00 0.00 0.00 93 1022.6
20260901011408 62 314 0.0 0.0 0.00 0.00 0.00 92 1022.6
20260901011345 62 314 0.0 0.0 0.00 0.00 0.00 92 1022.6
20260901011302 62 314 0.0 0.0 0.00 0.00 0.00 92 1022.6
20260901011013 62 314 0.0 0.0 0.00 0.00 0.00 92 1022.6
20260901010957 70 319 2.0 3.0 0.00 0.00 0.00 73 1022.2
20260901010943 70 319 1.0 3.0 0.00 0.00 0.00 73 1022.1
20260901010812 62 314 0.0 0.0 0.00 0.00 0.00 92 1022.6
20260901010613 62 314 0.0 0.0 0.00 0.00 0.00 92 1022.5
20260901010437 62 314 0.0 0.0 0.00 0.00 0.00 92 1022.6
20260901010419 62 314 0.0 0.0 0.00 0.00 0.00 92 1022.6
20260901010348 62 314 0.0 0.0 0.00 0.00 0.00 92 1022.6
20260901010149 62 314 0.0 0.0 0.00 0.00 0.00 92 1022.5
20260901010108 62 314 0.0 0.0 0.00 0.00 0.00 91 1022.5
20260901005711 62 314 0.0 0.0 0.00 0.00 0.00 91 1022.6
20260901005619 62 314 0.0 0.0 0.00 0.00 0.00 91 1022.6
20260901005254 62 314 0.0 0.0 0.00 0.00 0.00 91 1022.6
20260901005059 70 331 2.0 3.0 0.00 0.00 0.00 73 1022.1
20260901005024 62 314 0.0 0.0 0.00 0.00 0.00 91 1022.6
20260901004957 70 322 1.0 2.0 0.00 0.00 0.00 73 1022.1
20260901004834 62 314 0.0 0.0 0.00 0.00 0.00 91 1022.6
20260901004613 62 314 0.0 0.0 0.00 0.00 0.00 91 1022.7
20260901004409 62 314 0.0 0.0 0.00 0.00 0.00 91 1022.6
20260901004335 62 314 0.0 0.0 0.00 0.00 0.00 91 1022.6
20260901004247 62 314 0.0 0.0 0.00 0.00 0.00 91 1022.7
20260901004040 62 314 0.0 0.0 0.00 0.00 0.00 91 1022.7
20260901004004 62 314 0.0 0.0 0.00 0.00 0.00 91 1022.7
20260901003952 62 314 0.0 0.0 0.00 0.00 0.00 91 1022.8
20260901003410 62 314 0.0 0.0 0.00 0.00 0.00 91 1022.7
20260901003337 62 314 0.0 0.0 0.00 0.00 0.00 91 1022.8
20260901003252 62 314 0.0 0.0 0.00 0.00 0.00 91 1022.8
20260901003020 62 314 0.0 0.0 0.00 0.00 0.00 91 1022.8
20260901002948 72 330 1.0 2.0 0.00 0.00 0.00 70 1021.8
20260901002837 62 314 0.0 0.0 0.00 0.00 0.00 91 1022.9
20260901002814 62 314 0.0 0.0 0.00 0.00 0.00 91 1022.8
20260901002640 62 314 0.0 0.0 0.00 0.00 0.00 91 1022.9
20260901002552 62 314 0.0 0.0 0.00 0.00 0.00 91 1022.9
20260901002528 62 314 0.0 0.0 0.00 0.00 0.00 91 1022.9
20260901002502 62 314 0.0 0.0 0.00 0.00 0.00 91 1023.0
20260901002334 62 314 0.0 0.0 0.00 0.00 0.00 91 1022.9
20260901002031 62 314 0.0 0.0 0.00 0.00 0.00 91 1022.9
20260901001553 63 314 0.0 0.0 0.00 0.00 0.00 91 1022.9
20260901001534 63 314 0.0 0.0 0.00 0.00 0.00 91 1022.9
20260901001508 63 314 0.0 0.0 0.00 0.00 0.00 91 1022.9
20260901001309 63 314 0.0 0.0 0.00 0.00 0.00 91 1023.0
20260901001222 63 314 0.0 0.0 0.00 0.00 0.00 91 1023.0
20260901000251 63 314 0.0 1.0 0.00 0.00 0.00 91 1022.9
20260901000115 72 330 1.0 3.0 0.00 0.00 0.00 69 1021.8
20260901000003 62 314 0.0 1.0 0.00 0.00 0.00 91 1023.0
20260831235840 62 314 0.0 1.0 0.00 0.00 0.00 91 1023.0
20260831235815 62 314 0.0 1.0 0.00 0.00 0.00 91 1023.1
20260831235615 62 314 0.0 1.0 0.00 0.00 0.00 91 1023.0
20260831235428 62 314 0.0 1.0 0.00 0.00 0.00 91 1023.0
20260831235412 62 314 0.0 1.0 0.00 0.00 0.00 91 1023.0
20260831235322 62 314 0.0 0.0 0.00 0.00 0.00 91 1023.1
20260831235104 62 314 0.0 0.0 0.00 0.00 0.00 91 1023.0
20260831235022 62 314 0.0 0.0 0.00 0.00 0.00 91 1023.1
20260831234523 62 314 0.0 0.0 0.00 0.00 0.00 91 1023.0
20260831234503 62 314 0.0 0.0 0.00 0.00 0.00 91 1023.0
20260831234419 62 314 0.0 0.0 0.00 0.00 0.00 91 1023.0
20260831233948 73 311 1.0 3.0 0.00 0.00 0.00 70 1021.9
20260831233843 62 314 0.0 0.0 0.00 0.00 0.00 91 1023.0
20260831233814 62 314 0.0 0.0 0.00 0.00 0.00 91 1022.9
20260831233625 62 314 0.0 0.0 0.00 0.00 0.00 91 1023.0
20260831233515 62 314 0.0 0.0 0.00 0.00 0.00 90 1022.9
20260831233446 62 314 0.0 0.0 0.00 0.00 0.00 90 1022.9
20260831233403 62 314 0.0 0.0 0.00 0.00 0.00 90 1023.0
20260831233219 62 314 0.0 0.0 0.00 0.00 0.00 90 1023.0
20260831233136 62 314 0.0 0.0 0.00 0.00 0.00 90 1023.0
20260831233123 62 314 0.0 0.0 0.00 0.00 0.00 90 1022.9
20260831232934 62 314 0.0 0.0 0.00 0.00 0.00 90 1023.0
20260831232841 62 314 0.0 0.0 0.00 0.00 0.00 90 1023.0
20260831232822 62 314 0.0 0.0 0.00 0.00 0.00 90 1023.0
20260831232756 62 314 0.0 0.0 0.00 0.00 0.00 90 1023.1
20260831232655 62 314 0.0 0.0 0.00 0.00 0.00 90 1023.0
20260831232620 62 314 0.0 0.0 0.00 0.00 0.00 89 1023.0
20260831232309 62 314 0.0 0.0 0.00 0.00 0.00 89 1023.0
20260831232001 62 314 0.0 0.0 0.00 0.00 0.00 89 1023.1
20260831231918 62 314 0.0 0.0 0.00 0.00 0.00 89 1023.0
20260831230625 62 314 0.0 0.0 0.00 0.00 0.00 89 1023.0
20260831230314 62 314 0.0 0.0 0.00 0.00 0.00 89 1022.9
20260831230118 62 314 0.0 0.0 0.00 0.00 0.00 89 1022.9
20260831230040 62 314 0.0 0.0 0.00 0.00 0.00 89 1022.9
20260831230022 62 314 0.0 0.0 0.00 0.00 0.00 89 1022.9
20260831225906 63 314 0.0 0.0 0.00 0.00 0.00 89 1022.9
20260831225751 63 314 0.0 0.0 0.00 0.00 0.00 88 1022.9
20260831225015 63 314 0.0 0.0 0.00 0.00 0.00 88 1022.9
20260831224954 63 314 0.0 0.0 0.00 0.00 0.00 88 1022.9
20260831224440 63 314 0.0 0.0 0.00 0.00 0.00 88 1022.9
20260831224349 63 314 0.0 0.0 0.00 0.00 0.00 88 1022.9
20260831224201 63 314 0.0 0.0 0.00 0.00 0.00 88 1022.9
20260831223858 63 314 0.0 0.0 0.00 0.00 0.00 88 1023.0
20260831223659 63 314 0.0 0.0 0.00 0.00 0.00 88 1023.0
20260831223429 75 321 1.0 2.0 0.00 0.00 0.00 65 1021.7
20260831223335 63 314 0.0 0.0 0.00 0.00 0.00 88 1023.0
20260831223328 63 314 0.0 0.0 0.00 0.00 0.00 88 1023.0
20260831223231 63 314 0.0 0.0 0.00 0.00 0.00 88 1022.9
20260831223004 63 314 0.0 0.0 0.00 0.00 0.00 87 1022.9
20260831222453 63 314 0.0 0.0 0.00 0.00 0.00 87 1023.0
20260831222428 76 321 1.0 4.0 0.00 0.00 0.00 63 1021.6
20260831222322 63 314 0.0 0.0 0.00 0.00 0.00 87 1023.0
20260831222258 63 314 0.0 0.0 0.00 0.00 0.00 87 1023.0
20260831222051 63 314 0.0 0.0 0.00 0.00 0.00 87 1023.0
20260831221850 63 314 0.0 0.0 0.00 0.00 0.00 87 1023.0
20260831221834 64 314 0.0 0.0 0.00 0.00 0.00 87 1022.9
20260831221741 64 314 0.0 0.0 0.00 0.00 0.00 87 1022.9
20260831221600 64 314 0.0 0.0 0.00 0.00 0.00 87 1022.9
20260831221237 64 314 0.0 0.0 0.00 0.00 0.00 87 1023.0
20260831221047 64 314 0.0 0.0 0.00 0.00 0.00 86 1023.0
20260831220844 64 314 0.0 0.0 0.00 0.00 0.00 86 1022.9
20260831220801 64 314 0.0 0.0 0.00 0.00 0.00 86 1023.0
20260831220619 64 314 0.0 0.0 0.00 0.00 0.00 86 1022.9
20260831220535 64 314 0.0 0.0 0.00 0.00 0.00 86 1022.9
20260831220523 64 314 0.0 0.0 0.00 0.00 0.00 86 1022.9
20260831220338 64 314 0.0 0.0 0.00 0.00 0.00 86 1022.9
20260831220206 64 314 0.0 0.0 0.00 0.00 0.00 85 1022.9
20260831215736 64 314 0.0 0.0 0.00 0.00 0.00 85 1022.9
20260831215704 64 314 0.0 0.0 0.00 0.00 0.00 85 1022.9
20260831215649 64 314 0.0 0.0 0.00 0.00 0.00 85 1022.9
20260831215518 65 314 0.0 0.0 0.00 0.00 0.00 85 1022.9
20260831215355 65 314 0.0 0.0 0.00 0.00 0.00 84 1022.9
20260831214641 65 314 0.0 1.0 0.00 0.00 0.00 84 1022.9
20260831214618 65 314 0.0 1.0 0.00 0.00 0.00 84 1023.0
20260831214453 65 314 0.0 2.0 0.00 0.00 0.00 84 1023.0
20260831214139 65 314 0.0 3.0 0.00 0.00 0.00 84 1023.0
20260831214047 65 314 0.0 3.0 0.00 0.00 0.00 84 1022.9
20260831213819 65 314 1.0 3.0 0.00 0.00 0.00 84 1022.9
20260831213710 65 314 1.0 3.0 0.00 0.00 0.00 84 1022.9
20260831213536 65 314 1.0 3.0 0.00 0.00 0.00 83 1022.9
20260831213201 65 314 1.0 2.0 0.00 0.00 0.00 83 1022.9
20260831213046 65 314 0.0 2.0 0.00 0.00 0.00 83 1022.9
20260831212332 65 314 0.0 0.0 0.00 0.00 0.00 83 1023.0
20260831212150 65 314 0.0 0.0 0.00 0.00 0.00 83 1023.0
20260831212047 65 314 0.0 0.0 0.00 0.00 0.00 82 1023.0
20260831212026 65 314 0.0 0.0 0.00 0.00 0.00 82 1023.0
20260831211524 65 314 0.0 0.0 0.00 0.00 0.00 82 1023.0
20260831211501 66 314 0.0 0.0 0.00 0.00 0.00 82 1023.0
20260831211422 66 314 0.0 0.0 0.00 0.00 0.00 82 1023.0
20260831211230 66 314 0.0 0.0 0.00 0.00 0.00 82 1023.0
20260831211147 66 314 0.0 0.0 0.00 0.00 0.00 82 1023.0
20260831211133 66 314 0.0 0.0 0.00 0.00 0.00 82 1023.0
20260831211052 66 314 0.0 0.0 0.00 0.00 0.00 82 1022.9
20260831210855 66 314 0.0 0.0 0.00 0.00 0.00 82 1023.0
20260831210139 66 314 0.0 1.0 0.00 0.00 0.00 81 1022.9
20260831210128 66 314 0.0 1.0 0.00 0.00 0.00 81 1023.0
20260831210040 66 314 0.0 2.0 0.00 0.00 0.00 81 1023.0
20260831205850 67 314 0.0 2.0 0.00 0.00 0.00 81 1022.9
20260831205553 67 314 0.0 2.0 0.00 0.00 0.00 81 1023.0
20260831205422 67 314 0.0 2.0 0.00 0.00 0.00 81 1022.9
20260831205257 67 314 1.0 2.0 0.00 0.00 0.00 81 1022.9
20260831205126 67 314 0.0 2.0 0.00 0.00 0.00 80 1022.9
20260831205009 67 314 0.0 3.0 0.00 0.00 0.00 80 1022.9
20260831204946 67 314 0.0 3.0 0.00 0.00 0.00 80 1022.9
20260831204903 67 314 0.0 3.0 0.00 0.00 0.00 80 1022.9
20260831204742 67 314 0.0 3.0 0.00 0.00 0.00 80 1022.8
20260831204650 67 314 1.0 3.0 0.00 0.00 0.00 80 1022.8
20260831204332 67 314 0.0 3.0 0.00 0.00 0.00 80 1022.9
20260831203926 67 313 0.0 2.0 0.00 0.00 0.00 80 1022.8
20260831203510 67 313 0.0 2.0 0.00 0.00 0.00 79 1022.8
20260831203354 67 313 0.0 2.0 0.00 0.00 0.00 79 1022.8
20260831203249 67 313 0.0 2.0 0.00 0.00 0.00 78 1022.7
20260831203125 67 313 0.0 2.0 0.00 0.00 0.00 78 1022.7
20260831203053 67 313 1.0 2.0 0.00 0.00 0.00 78 1022.6
20260831203010 67 313 0.0 2.0 0.00 0.00 0.00 78 1022.7
20260831202852 67 313 0.0 0.0 0.00 0.00 0.00 78 1022.7
20260831202757 68 313 0.0 1.0 0.00 0.00 0.00 78 1022.7
20260831202722 68 313 0.0 1.0 0.00 0.00 0.00 78 1022.7
20260831202357 68 313 0.0 1.0 0.00 0.00 0.00 78 1022.7
20260831202321 68 313 0.0 1.0 0.00 0.00 0.00 78 1022.6
20260831202216 68 313 0.0 1.0 0.00 0.00 0.00 77 1022.7
20260831202044 68 313 0.0 2.0 0.00 0.00 0.00 77 1022.7
20260831202000 68 313 0.0 2.0 0.00 0.00 0.00 77 1022.7
20260831201850 68 313 0.0 2.0 0.00 0.00 0.00 77 1022.7
20260831201814 68 313 1.0 2.0 0.00 0.00 0.00 77 1022.6
20260831201732 68 313 1.0 2.0 0.00 0.00 0.00 77 1022.7
20260831201606 68 313 0.0 2.0 0.00 0.00 0.00 77 1022.6
20260831201247 68 331 0.0 2.0 0.00 0.00 0.00 77 1022.5
20260831201207 68 331 0.0 2.0 0.00 0.00 0.00 76 1022.5
20260831201053 68 331 0.0 2.0 0.00 0.00 0.00 76 1022.5
20260831201029 68 331 0.0 4.0 0.00 0.00 0.00 76 1022.4
20260831200618 68 331 1.0 5.0 0.00 0.00 0.00 76 1022.5
20260831200509 69 331 1.0 5.0 0.00 0.00 0.00 76 1022.5
20260831200451 69 331 1.0 5.0 0.00 0.00 0.00 76 1022.3
20260831200004 69 331 2.0 6.0 0.00 0.00 0.00 75 1022.4
20260831195930 69 307 2.0 6.0 0.00 0.00 0.00 75 1022.3
20260831195833 69 306 2.0 6.0 0.00 0.00 0.00 75 1022.4
20260831195646 69 332 2.0 6.0 0.00 0.00 0.00 75 1022.4
20260831195255 69 318 1.0 3.0 0.00 0.00 0.00 75 1022.3
20260831195130 69 288 1.0 3.0 0.00 0.00 0.00 75 1022.3
20260831194952 69 319 1.0 4.0 0.00 0.00 0.00 75 1022.3
20260831194923 69 315 1.0 4.0 0.00 0.00 0.00 75 1022.3
20260831194835 69 315 1.0 4.0 0.00 0.00 0.00 75 1022.3
20260831194731 69 315 1.0 4.0 0.00 0.00 0.00 75 1022.3
20260831194627 69 315 1.0 4.0 0.00 0.00 0.00 74 1022.2
20260831194237 69 313 2.0 4.0 0.00 0.00 0.00 74 1022.3
20260831194109 69 336 1.0 3.0 0.00 0.00 0.00 74 1022.3
20260831194045 69 336 1.0 3.0 0.00 0.00 0.00 74 1022.3
20260831194007 69 319 1.0 3.0 0.00 0.00 0.00 74 1022.3
20260831193848 69 319 1.0 3.0 0.00 0.00 0.00 73 1022.2
20260831193132 70 331 1.0 3.0 0.00 0.00 0.00 73 1022.2
20260831192735 70 331 2.0 3.0 0.00 0.00 0.00 73 1022.1
20260831192305 70 322 1.0 3.0 0.00 0.00 0.00 73 1022.1
20260831192133 70 322 1.0 3.0 0.00 0.00 0.00 72 1022.0
20260831192003 70 303 1.0 3.0 0.00 0.00 0.00 72 1022.0
20260831191855 70 303 1.0 3.0 0.00 0.00 0.00 72 1021.9
20260831191827 70 303 1.0 3.0 0.00 0.00 0.00 72 1022.0
20260831191742 71 303 1.0 3.0 0.00 0.00 0.00 72 1021.9
20260831191615 71 333 2.0 3.0 0.00 0.00 0.00 72 1021.8
20260831191518 71 335 1.0 3.0 0.00 0.00 0.00 71 1021.9
20260831191447 71 331 1.0 3.0 0.00 0.00 0.00 71 1021.9
20260831191329 71 331 1.0 3.0 0.00 0.00 0.00 71 1021.9
20260831191211 71 316 1.0 3.0 0.00 0.00 0.00 71 1021.8
20260831191148 71 316 1.0 3.0 0.00 0.00 0.00 71 1021.8
20260831191107 71 316 1.0 3.0 0.00 0.00 0.00 71 1021.8
20260831190936 71 330 1.0 2.0 0.00 0.00 0.00 71 1021.9
20260831190835 72 330 1.0 2.0 0.00 0.00 0.00 70 1021.9
20260831190810 72 330 1.0 2.0 0.00 0.00 0.00 70 1021.8
20260831190637 72 330 1.0 2.0 0.00 0.00 0.00 70 1021.8
20260831190315 72 330 1.0 2.0 0.00 0.00 0.00 70 1021.8
20260831190211 72 330 1.0 2.0 0.00 0.00 0.00 70 1021.8
20260831190036 72 330 1.0 2.0 0.00 0.00 0.00 70 1021.8
20260831185928 72 330 2.0 2.0 0.00 0.00 0.00 69 1021.9
20260831185917 72 330 1.0 2.0 0.00 0.00 0.00 69 1021.9
20260831185814 72 330 1.0 3.0 0.00 0.00 0.00 69 1021.8
20260831185348 72 330 1.0 3.0 0.00 0.00 0.00 69 1021.8
20260831185315 72 330 1.0 3.0 0.00 0.00 0.00 69 1021.9
20260831185146 73 330 1.0 3.0 0.00 0.00 0.00 69 1022.0
20260831185029 73 327 2.0 3.0 0.00 0.00 0.00 69 1021.9
20260831184847 73 310 1.0 3.0 0.00 0.00 0.00 70 1021.8
20260831184736 73 310 1.0 3.0 0.00 0.00 0.00 69 1021.8
20260831184659 73 310 1.0 3.0 0.00 0.00 0.00 70 1021.8
20260831184616 73 288 2.0 3.0 0.00 0.00 0.00 70 1021.8
20260831184439 73 288 1.0 3.0 0.00 0.00 0.00 69 1021.9
20260831184104 73 311 1.0 3.0 0.00 0.00 0.00 70 1021.9
20260831183948 73 311 1.0 3.0 0.00 0.00 0.00 70 1021.8
20260831183815 73 319 1.0 3.0 0.00 0.00 0.00 69 1021.8
20260831183724 73 332 1.0 2.0 0.00 0.00 0.00 70 1021.8
20260831183643 73 340 1.0 2.0 0.00 0.00 0.00 69 1021.8
20260831183520 73 340 1.0 2.0 0.00 0.00 0.00 69 1021.8
20260831183351 73 340 0.0 2.0 0.00 0.00 0.00 69 1021.8
20260831183243 74 340 0.0 2.0 0.00 0.00 0.00 69 1021.8
20260831183118 74 340 1.0 2.0 0.00 0.00 0.00 69 1021.8
20260831183044 74 340 1.0 3.0 0.00 0.00 0.00 68 1021.7
20260831182958 74 340 1.0 3.0 0.00 0.00 0.00 68 1021.7
20260831182847 74 340 1.0 4.0 0.00 0.00 0.00 68 1021.7
20260831182751 74 340 1.0 4.0 0.00 0.00 0.00 68 1021.8
20260831182726 74 340 1.0 4.0 0.00 0.00 0.00 68 1021.7
20260831182614 74 340 1.0 4.0 0.00 0.00 0.00 68 1021.8
20260831182509 74 340 2.0 4.0 0.00 0.00 0.00 68 1021.8
20260831182455 74 336 2.0 4.0 0.00 0.00 0.00 68 1021.7
20260831182336 74 336 2.0 4.0 0.00 0.00 0.00 68 1021.6
20260831182217 74 323 1.0 2.0 0.00 0.00 0.00 67 1021.7
20260831182118 74 322 1.0 2.0 0.00 0.00 0.00 67 1021.7
20260831181705 74 322 1.0 3.0 0.00 0.00 0.00 67 1021.6
20260831181547 74 322 0.0 3.0 0.00 0.00 0.00 66 1021.6
20260831181536 74 322 1.0 3.0 0.00 0.00 0.00 66 1021.6
20260831181420 75 322 1.0 3.0 0.00 0.00 0.00 66 1021.7
20260831181311 75 322 1.0 3.0 0.00 0.00 0.00 66 1021.7
20260831181228 75 322 0.0 3.0 0.00 0.00 0.00 66 1021.6
20260831181144 75 322 0.0 3.0 0.00 0.00 0.00 65 1021.7
20260831181017 75 318 0.0 2.0 0.00 0.00 0.00 65 1021.6
20260831180902 75 318 0.0 2.0 0.00 0.00 0.00 65 1021.7
20260831180850 75 318 1.0 2.0 0.00 0.00 0.00 65 1021.7
20260831180747 75 318 0.0 2.0 0.00 0.00 0.00 65 1021.7
20260831180634 75 321 1.0 2.0 0.00 0.00 0.00 65 1021.7
20260831180551 75 321 1.0 2.0 0.00 0.00 0.00 65 1021.7
20260831180210 75 321 1.0 2.0 0.00 0.00 0.00 65 1021.7
20260831180043 75 321 1.0 2.0 0.00 0.00 0.00 64 1021.7
20260831175946 75 321 1.0 2.0 0.00 0.00 0.00 64 1021.6
20260831175830 76 321 1.0 2.0 0.00 0.00 0.00 64 1021.7
20260831175455 76 321 1.0 4.0 0.00 0.00 0.00 63 1021.6
20260831175339 76 323 1.0 4.0 0.00 0.00 0.00 63 1021.6
20260831175234 76 323 1.0 4.0 0.00 0.00 0.00 63 1021.7
20260831175114 76 323 1.0 4.0 0.00 0.00 0.00 63 1021.7
20260831175000 76 290 2.0 5.0 0.00 0.00 0.00 62 1021.6
20260831174909 76 286 2.0 5.0 0.00 0.00 0.00 62 1021.7
20260831174826 76 281 2.0 5.0 0.00 0.00 0.00 62 1021.7
20260831174306 77 300 2.0 5.0 0.00 0.00 0.00 61 1021.8
20260831173756 77 309 2.0 4.0 0.00 0.00 0.00 59 1021.8
20260831173659 77 303 2.0 4.0 0.00 0.00 0.00 59 1021.7
20260831173618 77 303 2.0 4.0 0.00 0.00 0.00 59 1021.8
20260831173445 77 284 2.0 5.0 0.00 0.00 0.00 59 1021.8
20260831172749 78 275 2.0 5.0 0.00 0.00 0.00 59 1021.7
20260831172628 78 304 2.0 5.0 0.00 0.00 0.00 58 1021.7
20260831172547 78 304 2.0 5.0 0.00 0.00 0.00 58 1021.7
20260831172143 78 340 2.0 4.0 0.00 0.00 0.00 58 1021.7
20260831172017 78 306 2.0 6.0 0.00 0.00 0.00 58 1021.7
20260831171512 78 310 2.0 6.0 0.00 0.00 0.00 60 1021.7
20260831171416 78 311 3.0 6.0 0.00 0.00 0.00 59 1021.8
20260831171330 78 346 3.0 6.0 0.00 0.00 0.00 59 1021.7
20260831171201 78 352 2.0 6.0 0.00 0.00 0.00 58 1021.8